weather.gov     
National Weather Service

Terminal Aerodrome Forecast
NWS Homepage
This page is being discontinued on March 12, 2014.
The same data is available at this site. Please update your bookmarks.
Thank you, and we apologize for the inconvenience.
Please send an email to SR-SRH.Webmaster@noaa.gov with any concerns.


Current Version
Previous Version:    01  02  03  04  05  06  07  08  09  10  11  12  13  14  15  16  17  18  19  20  21  22  23  24  25  26  27  28  29  30  
   31  
[Printable]
278
FTUS44 KTSA 011300 AAB
TAFTUL
TAF AMD
KTUL 011337Z 0114/0212 16011KT P6SM VCTS SCT060CB BKN150
     FM011500 18014G20KT P6SM SCT050 SCT250
     FM020000 16011KT P6SM SCT100 BKN250
     FM020900 17010KT P6SM VCTS BKN100CB
      TEMPO 0209/0212 6SM -TSRA BKN050CB=


U.S. Dept. of Commerce
NOAA National Weather Service
1325 East West Highway
Silver Spring, MD 20910
E-mail: w-nws.webmaster@noaa.gov
Page last modified: May 16, 2007
NATIONAL WEATHER SERVICE: for Safety, for Work, for Fun - FOR LIFE